COSMOS 1275 DEB, 39938

Orbit data source: Space-Track

COSMOS 1275 DEB, 39938 is space debris in LEO originally from a launch on Thu, 04 Jun 1981 UTC launched from the Plesetsk Missile And Space Complex (PKMTR). Debris objects in space refer to the collection of defunct objects orbiting the Earth. Examples of debris include non-operational satellites, rocket bodies, and fragments generated from explosions, collisions, or faulty payload assembly.

Loading next visibility...
Identifier
39938, 1981-053MY
Orbit
LEO
Country
Flag of CISCIS
Related business
Manufacturer
Unknown
Mission
Spacecraft
Bus & Motor
Unknown
Mass
Unknown
Launch date (UTC)
1981-06-04 (45 years ago)
Launch vehicle
Unknown
Launch site
Plesetsk Missile And Space Complex (PKMTR)
Object type
Payload
Rocket body
Debris
Shape & HBR
Unknown shape, 0.1 m
Radar Cross Section
Small (<0.1 m²)

Expand to show TLE details & history
Last TLE update: 3 days ago

TLE from 3 days ago
0 COSMOS 1275 DEB
1 39938U 81053MY  25349.45065910  .00001218  00000-0  13176-2 0  9994
2 39938  83.0684 246.5189 0130973 117.5976 243.8549 13.68674385574100
Epoch: 2025-12-15T10:48Z
TLE epoch observation values (Epoch: 2025-12-15T10:48:56.946Z)
Latitude
-0.00002°
Longitude
-0.06742°
Altitude
1,050.856 km
Speed
7.305 km/s
True Right ascension
16h 26m 04s
True Declination
0° 00' 00"
Sunlit
Object was in daylight at epoch
Visualization orbit readout
Latitude
Unknown
Longitude
Unknown
Altitude
Unknown
Speed
Unknown
Apparent Right ascension
Unknown
Apparent Declination
Unknown
Sunlit
N/A
Visualization observer readout
Local Sidereal Time
07:03:32
Azimuth
Unknown
Elevation
Unknown
Doppler factor
Unknown
Orbital elements
Apogee altitude
1,098.139 km
Perigee altitude
904.833 km
Semi-major axis
7,379.623 km
Eccentricity
0.0131
Inclination
83.0684°
RAAN
246.5189°
Arg. of periapsis
117.5976°
True anomaly
242.5174°
Mean anomaly
243.8549°
Eccentric anomaly
243.18517°
Mean motion
3.42367 °/min
Orbital period
105.15 mins
BSTAR
0.0013176
Loading maneuver chart data...
Computing Atmospheric mass density...

Documentation

Showing up to 5 results
|